Location: Andershausen
(51.8462°N, 9.8595°E)
Time: 01:06:52
(UTC+00:00)

CZ-2D R/B - Pass Details

Date: 18 November 2025
Orbit: 403 x 411 km, 97.4° (Epoch: 12 December)

Event Time Altitude Azimuth Distance (km) Brightness Sun altitude
Rises 16:23:29 0° 152° (SSE) 2,330 6.5 -8.9°
Reaches altitude 10° 16:25:30 10° 147° (SSE) 1,472 5.4 -9.2°
Maximum altitude 16:28:32 48° 72° (ENE) 546 2.9 -9.6°
Drops below altitude 10° 16:31:35 10° 357° (N) 1,479 5.4 -10.0°
Sets 16:33:37 0° 351° (N) 2,343 6.4 -10.3°
